Location: Stonelick Lake State Park
(39.2170°N, 84.0850°W)
Time: 08:36:45
(UTC-04:00)

Amateur Radio Satellites - All Passes

Search period start: 01 November 2014 08:06
Search period end: 02 November 2014 07:06
Location: Stonelick Lake State Park, 39.2170°N, 84.0850°W

Satellite Date Start Highest point End Downlink Frequencies (MHz)
Time Altitude Azimuth
SO-67 01 Nov 08:20:47 08:24:03 40° 98° (E) 08:27:18 435.3500 MHz FM
STRAND 1 01 Nov 08:57:13 09:00:32 17° 268° (W) 09:03:53 ?
RS-15 01 Nov 09:04:24 09:13:21 29° 256° (WSW) 09:22:38 29.354 - 29.394 USB, Beacon 29.352 USB
MaSat-1 01 Nov 09:08:51 09:10:22 15° 253° (WSW) 09:11:51 437.345 MHz
JAS-2 01 Nov 09:19:01 09:23:07 15° 306° (NW) 09:27:11 435.800 - 435.900 CW/SSB, 435.910 FM
HO-68 01 Nov 09:20:59 09:25:55 20° 92° (E) 09:30:50 435.675 MHz FM
ISS 01 Nov 09:50:19 09:53:04 24° 133° (SE) 09:55:49 145.800 FM
SO-67 01 Nov 09:55:49 09:56:37 11° 294° (WNW) 09:57:25 435.3500 MHz FM
UKube-1 01 Nov 10:14:42 10:16:52 14° 92° (E) 10:19:01 145.840 MHz, 145.915 MHz
Sapphire 01 Nov 10:41:55 10:44:52 15° 43° (NE) 10:47:47 437.095 MHz 1200 baud AX-25 AFSK
Oscar 11 01 Nov 10:47:26 10:51:18 31° 97° (E) 10:55:08 145.825 FM, Beacon 2401.500 USB
KITSAT 1 01 Nov 10:57:20 11:04:55 47° 111° (ESE) 11:12:32 435.175 FM
SO-50 01 Nov 10:58:47 11:02:28 26° 112° (ESE) 11:06:15 436.795 FM
PCSat 01 Nov 11:02:42 11:06:51 22° 48° (NE) 11:10:58 145.825 MHz
FUNcube-1 01 Nov 11:07:01 11:10:11 21° 94° (E) 11:13:18 145.950 - 145.970 MHz USB
HO-68 01 Nov 11:07:02 11:14:13 73° 289° (WNW) 11:21:21 435.675 MHz FM
ISS 01 Nov 11:26:33 11:29:38 35° 329° (NNW) 11:32:44 145.800 FM
UKube-1 01 Nov 11:49:05 11:53:19 50° 287° (WNW) 11:57:30 145.840 MHz, 145.915 MHz
ZACube-1 01 Nov 11:59:51 12:04:03 90° 103° (ESE) 12:08:12 437.345 MHz
Sapphire 01 Nov 12:23:38 12:29:06 85° 62° (ENE) 12:34:32 437.095 MHz 1200 baud AX-25 AFSK
Oscar 11 01 Nov 12:24:01 12:27:16 21° 292° (WNW) 12:30:31 145.825 FM, Beacon 2401.500 USB
SO-50 01 Nov 12:38:45 12:42:51 34° 310° (NW) 12:47:05 436.795 FM
FUNcube-1 01 Nov 12:42:57 12:46:34 29° 290° (WNW) 12:50:09 145.950 - 145.970 MHz USB
PCSat 01 Nov 12:45:19 12:50:38 58° 246° (WSW) 12:55:55 145.825 MHz
KITSAT 1 01 Nov 12:52:52 13:00:23 41° 310° (NW) 13:07:57 435.175 FM
HO-68 01 Nov 12:57:23 13:00:41 14° 307° (NW) 13:03:59 435.675 MHz FM
Oscar 16 01 Nov 12:59:51 13:02:44 15° 62° (ENE) 13:05:38 437.025 USB, Beacon 2401.1428
JAS-1B 01 Nov 13:03:55 13:07:30 17° 60° (ENE) 13:11:07 435.800 - 435.900 CW/SSB
ISS 01 Nov 13:05:46 13:07:05 12° 348° (NNW) 13:08:25 145.800 FM
UOSAT-12 01 Nov 13:16:19 13:20:51 61° 118° (ESE) 13:25:30 437.025 FM, 437.400 FM
AO-Echo 01 Nov 13:26:59 13:29:27 14° 61° (ENE) 13:31:57 ?
Uribyol 2 01 Nov 13:34:57 13:37:37 14° 61° (ENE) 13:40:16 436.500 FM
ITAMSAT 1 01 Nov 13:42:44 13:45:47 16° 62° (ENE) 13:48:50 435.822 SSB
Saudisat 1A 01 Nov 13:45:59 13:47:49 12° 40° (NE) 13:49:39 436.775 MHz
Oscar 19 01 Nov 13:49:28 13:54:18 43° 71° (ENE) 13:59:08 437.125 CW, 437.150 USB
Sapphire 01 Nov 14:10:00 14:11:43 11° 258° (WSW) 14:13:26 437.095 MHz 1200 baud AX-25 AFSK
AO-27 01 Nov 14:28:26 14:33:19 42° 70° (ENE) 14:38:13 436.795 MHz FM
Oscar 16 01 Nov 14:36:24 14:41:31 66° 258° (WSW) 14:46:39 437.025 USB, Beacon 2401.1428
ISS 01 Nov 14:44:02 14:45:00 11° 9° (N) 14:45:58 145.800 FM
Gurwin Techsat 1B 01 Nov 14:50:11 14:54:57 35° 69° (ENE) 14:59:45 435.225 FM
JAS-1B 01 Nov 14:52:00 14:57:40 59° 259° (WSW) 15:03:19 435.800 - 435.900 CW/SSB
KITSAT 1 01 Nov 14:55:13 14:58:24 13° 336° (NNW) 15:01:36 435.175 FM
TMSAT-1 01 Nov 14:56:06 15:00:39 30° 67° (ENE) 15:05:12 436.925 FM
UOSAT-12 01 Nov 14:58:08 15:01:24 19° 316° (NW) 15:04:43 437.025 FM, 437.400 FM
AO-7 01 Nov 15:00:47 15:05:49 18° 51° (NE) 15:10:51 29.400 - 29.500 MHz
AO-Echo 01 Nov 15:02:32 15:07:30 73° 258° (WSW) 15:12:41 ?
Uribyol 2 01 Nov 15:11:13 15:16:26 74° 257° (WSW) 15:21:40 436.500 FM
ITAMSAT 1 01 Nov 15:19:31 15:24:42 66° 258° (WSW) 15:29:55 435.822 SSB
Saudisat 1A 01 Nov 15:23:36 15:28:03 87° 59° (ENE) 15:32:28 436.775 MHz
Oscar 19 01 Nov 15:29:58 15:33:48 21° 266° (W) 15:37:39 437.125 CW, 437.150 USB
AO-27 01 Nov 16:08:56 16:12:57 22° 266° (W) 16:17:01 436.795 MHz FM
ISS 01 Nov 16:19:36 16:22:33 28° 29° (NNE) 16:25:30 145.800 FM
Gurwin Techsat 1B 01 Nov 16:30:27 16:34:56 28° 265° (W) 16:39:26 435.225 FM
TMSAT-1 01 Nov 16:35:42 16:40:27 33° 263° (W) 16:45:13 436.925 FM
AO-7 01 Nov 16:49:05 16:57:20 80° 70° (ENE) 17:05:38 29.400 - 29.500 MHz
Uosat F 01 Nov 16:55:06 17:00:00 56° 72° (ENE) 17:04:56 435.120 FM
Hamsat 01 Nov 17:22:03 17:23:28 12° 64° (ENE) 17:24:52 145.90 MHz
JAS-2 01 Nov 17:42:01 17:48:03 48° 68° (ENE) 17:54:51 435.800 - 435.900 CW/SSB, 435.910 FM
ISS 01 Nov 17:56:12 17:59:16 34° 225° (SW) 18:02:19 145.800 FM
Uosat F 01 Nov 18:36:08 18:39:07 16° 268° (W) 18:42:07 435.120 FM
AO-7 01 Nov 18:45:14 18:50:54 20° 268° (W) 18:56:37 29.400 - 29.500 MHz
KITSAT 1 01 Nov 18:51:51 18:57:53 22° 38° (NE) 19:03:52 435.175 FM
SO-67 01 Nov 18:54:01 18:55:25 12° 67° (ENE) 18:56:49 435.3500 MHz FM
Hamsat 01 Nov 18:54:46 18:58:53 58° 260° (W) 19:03:01 145.90 MHz
OPAL 01 Nov 19:08:07 19:13:05 86° 106° (ESE) 19:18:03 ?
JAS-2 01 Nov 19:28:00 19:33:21 29° 268° (W) 19:39:18 435.800 - 435.900 CW/SSB, 435.910 FM
STRAND 1 01 Nov 19:28:44 19:32:24 20° 93° (E) 19:36:02 ?
SO-50 01 Nov 19:30:53 19:34:40 22° 46° (NE) 19:38:29 436.795 FM
HO-68 01 Nov 19:50:45 19:54:21 15° 53° (NE) 19:57:56 435.675 MHz FM
Oscar 10/S400 01 Nov 20:09:29 20:39:11 59° 194° (SSW) 04:59:26 145.825 - 145.975 CW/USB, Beacon 145.810 USB
AO-40 01 Nov 20:16:31 22:45:52 35° 203° (SSW) 02:42:53 Beacon 2401.320
SO-67 01 Nov 20:24:53 20:28:02 34° 262° (W) 20:31:13 435.3500 MHz FM
KITSAT 1 01 Nov 20:46:23 20:54:31 84° 60° (ENE) 21:02:36 435.175 FM
OPAL 01 Nov 20:49:42 20:51:15 11° 302° (WNW) 20:52:47 ?
STRAND 1 01 Nov 21:06:53 21:11:48 47° 289° (WNW) 21:16:41 ?
UKube-1 01 Nov 21:10:23 21:11:46 11° 62° (ENE) 21:13:09 145.840 MHz, 145.915 MHz
SO-50 01 Nov 21:10:47 21:15:30 51° 243° (WSW) 21:20:13 436.795 FM
RS-15 01 Nov 21:12:54 21:23:27 55° 112° (ESE) 21:33:54 29.354 - 29.394 USB, Beacon 29.352 USB
HO-68 01 Nov 21:33:44 21:40:52 77° 72° (ENE) 21:48:04 435.675 MHz FM
Oscar 11 01 Nov 21:41:52 21:45:14 23° 68° (ENE) 21:48:36 145.825 FM, Beacon 2401.500 USB
UOSAT-12 01 Nov 21:47:04 21:51:31 39° 52° (NE) 21:55:52 437.025 FM, 437.400 FM
FUNcube-1 01 Nov 22:02:47 22:05:42 17° 66° (ENE) 22:08:35 145.950 - 145.970 MHz USB
MaSat-1 01 Nov 22:40:47 22:44:41 86° 294° (WNW) 22:48:12 437.345 MHz
UKube-1 01 Nov 22:43:02 22:47:22 67° 258° (WSW) 22:51:43 145.840 MHz, 145.915 MHz
KITSAT 1 01 Nov 22:43:40 22:48:54 19° 258° (WSW) 22:54:08 435.175 FM
ZACube-1 01 Nov 22:54:43 22:59:12 63° 75° (ENE) 23:03:36 437.345 MHz
Oscar 11 01 Nov 23:17:29 23:21:15 29° 264° (W) 23:25:02 145.825 FM, Beacon 2401.500 USB
HO-68 01 Nov 23:24:34 23:29:13 18° 269° (W) 23:33:55 435.675 MHz FM
RS-15 01 Nov 23:25:40 23:35:59 45° 314° (NW) 23:46:23 29.354 - 29.394 USB, Beacon 29.352 USB
UOSAT-12 01 Nov 23:27:44 23:31:24 23° 249° (WSW) 23:35:02 437.025 FM, 437.400 FM
FUNcube-1 01 Nov 23:37:25 23:41:44 43° 261° (W) 23:45:59 145.950 - 145.970 MHz USB
ZACube-1 02 Nov 00:34:31 00:35:56 11° 269° (W) 00:37:20 437.345 MHz
Sapphire 02 Nov 01:24:55 01:26:53 12° 102° (ESE) 01:28:52 437.095 MHz 1200 baud AX-25 AFSK
PCSat 02 Nov 01:44:06 01:48:05 21° 106° (ESE) 01:52:04 145.825 MHz
RS-15 02 Nov 01:45:11 01:52:17 19° 346° (NNW) 01:59:30 29.354 - 29.394 USB, Beacon 29.352 USB
Oscar 19 02 Nov 01:03:16 01:06:26 16° 92° (E) 01:09:36 437.125 CW, 437.150 USB
JAS-1B 02 Nov 01:34:34 01:41:36 43° 99° (E) 01:49:47 435.800 - 435.900 CW/SSB
AO-27 02 Nov 01:43:46 01:46:57 16° 92° (E) 01:50:07 436.795 MHz FM
Oscar 16 02 Nov 01:49:15 01:54:12 48° 100° (E) 01:59:07 437.025 USB, Beacon 2401.1428
Sapphire 02 Nov 02:04:07 02:09:31 82° 298° (WNW) 02:14:59 437.095 MHz 1200 baud AX-25 AFSK
Gurwin Techsat 1B 02 Nov 02:08:41 02:11:39 15° 91° (E) 02:14:35 435.225 FM
AO-Echo 02 Nov 02:10:59 02:16:01 41° 98° (E) 02:20:56 ?
TMSAT-1 02 Nov 02:14:48 02:16:47 12° 89° (E) 02:18:45 436.925 FM
Uribyol 2 02 Nov 02:25:16 02:30:13 43° 99° (E) 02:35:06 436.500 FM
PCSat 02 Nov 02:25:51 02:31:05 50° 303° (WNW) 02:36:23 145.825 MHz
ITAMSAT 1 02 Nov 02:33:36 02:38:39 49° 100° (E) 02:43:40 435.822 SSB
Oscar 19 02 Nov 02:41:06 02:46:06 55° 288° (WNW) 02:51:05 437.125 CW, 437.150 USB
RS-15 02 Nov 03:02:24 03:10:33 22° 24° (NNE) 03:18:51 29.354 - 29.394 USB, Beacon 29.352 USB
PANSAT 02 Nov 03:21:09 03:23:01 13° 169° (S) 03:24:53 not established
AO-27 02 Nov 03:21:41 03:26:49 58° 288° (WNW) 03:31:54 436.795 MHz FM
JAS-1B 02 Nov 03:25:25 03:32:03 40° 292° (WNW) 03:39:49 435.800 - 435.900 CW/SSB
Oscar 16 02 Nov 03:29:31 03:33:11 20° 296° (WNW) 03:36:50 437.025 USB, Beacon 2401.1428
OPAL 02 Nov 03:45:34 03:48:44 17° 61° (ENE) 03:51:54 ?
Gurwin Techsat 1B 02 Nov 03:46:46 03:52:02 64° 287° (WNW) 03:57:16 435.225 FM
AO-Echo 02 Nov 03:50:16 03:54:29 25° 294° (WNW) 03:58:40 ?
Sapphire 02 Nov 03:51:01 03:53:48 14° 318° (NW) 03:56:36 437.095 MHz 1200 baud AX-25 AFSK
TMSAT-1 02 Nov 03:51:56 03:57:15 77° 285° (WNW) 04:02:32 436.925 FM
AO-7 02 Nov 03:52:39 03:59:33 28° 96° (E) 04:06:24 29.400 - 29.500 MHz
Uosat F 02 Nov 04:04:55 04:08:26 19° 93° (E) 04:11:54 435.120 FM
Uribyol 2 02 Nov 04:05:25 04:09:23 23° 295° (WNW) 04:13:19 436.500 FM
ITAMSAT 1 02 Nov 04:14:01 04:17:45 20° 296° (WNW) 04:21:29 435.822 SSB
Saudisat 1A 02 Nov 04:29:22 04:33:07 28° 113° (ESE) 04:36:53 436.775 MHz
PANSAT 02 Nov 05:00:01 05:02:29 16° 182° (S) 05:04:57 not established
RS-15 02 Nov 05:14:47 05:25:51 61° 52° (NE) 05:37:21 29.354 - 29.394 USB, Beacon 29.352 USB
OPAL 02 Nov 05:22:06 05:27:08 60° 257° (WSW) 05:32:08 ?
JAS-2 02 Nov 05:36:54 05:44:33 52° 98° (E) 05:51:48 435.800 - 435.900 CW/SSB, 435.910 FM
Hamsat 02 Nov 05:41:43 05:45:14 25° 95° (E) 05:48:46 145.90 MHz
Uosat F 02 Nov 05:42:36 05:47:26 47° 289° (WNW) 05:52:14 435.120 FM
STRAND 1 02 Nov 05:43:32 05:47:45 26° 66° (ENE) 05:51:59 ?
AO-7 02 Nov 05:44:34 05:52:45 62° 293° (WNW) 06:00:55 29.400 - 29.500 MHz
Saudisat 1A 02 Nov 06:08:46 06:12:36 29° 310° (NW) 06:16:29 436.775 MHz
PANSAT 02 Nov 06:40:54 06:41:56 11° 195° (SSW) 06:42:58 not established
SO-67 02 Nov 06:49:46 06:51:52 15° 93° (E) 06:53:58 435.3500 MHz FM
